owner,sensor,date,latitude,longitude,vertical_datum,sea_water_practical_salinity,qcFlag 
DISL,ioos:station:DISL:KATA:1,2014-01-01T00:00:00Z,30.2583,-88.2131,4.8,21.7,11111222 
DISL,ioos:station:DISL:KATA:1,2014-01-01T00:30:00Z,30.2583,-88.2131,4.8,21.6,11111222 
DISL,ioos:station:DISL:KATA:1,2014-01-01T01:00:00Z,30.2583,-88.2131,4.8,21.8,11111222 
DISL,ioos:station:DISL:KATA:1,2014-01-01T01:30:00Z,30.2583,-88.2131,4.8,21.9,11111222 
DISL,ioos:station:DISL:KATA:1,2014-01-01T02:00:00Z,30.2583,-88.2131,4.8,22.0,11111222 
DISL,ioos:station:DISL:KATA:1,2014-01-01T02:30:00Z,30.2583,-88.2131,4.8,21.9,11111222 
DISL,ioos:station:DISL:KATA:1,2014-01-01T03:00:00Z,30.2583,-88.2131,4.8,22.3,11111222 
DISL,ioos:station:DISL:KATA:1,2014-01-01T03:30:00Z,30.2583,-88.2131,4.9,22.6,11111222 
DISL,ioos:station:DISL:KATA:1,2014-01-01T04:00:00Z,30.2583,-88.2131,4.8,22.8,11111222 
DISL,ioos:station:DISL:KATA:1,2014-01-01T04:30:00Z,30.2583,-88.2131,4.8,22.6,11111222 
DISL,ioos:station:DISL:KATA:1,2014-01-01T05:00:00Z,30.2583,-88.2131,4.8,23.1,11111222 
DISL,ioos:station:DISL:KATA:1,2014-01-01T05:30:00Z,30.2583,-88.2131,4.7,23.1,11111222 
DISL,ioos:station:DISL:KATA:1,2014-01-01T06:00:00Z,30.2583,-88.2131,4.7,23.1,11111222 
DISL,ioos:station:DISL:KATA:1,2014-01-01T06:30:00Z,30.2583,-88.2131,4.64,22.84,1111122 
DISL,ioos:station:DISL:KATA:1,2014-01-01T07:00:00Z,30.2583,-88.2131,4.604,23.17,1111122 
DISL,ioos:station:DISL:KATA:1,2014-01-01T07:30:00Z,30.2583,-88.2131,4.552,22.85,1111122 
DISL,ioos:station:DISL:KATA:1,2014-01-01T08:00:00Z,30.2583,-88.2131,4.475,23.03,1111122 
DISL,ioos:station:DISL:KATA:1,2014-01-01T08:30:00Z,30.2583,-88.2131,4.425,23.25,1111122 
DISL,ioos:station:DISL:KATA:1,2014-01-01T09:00:00Z,30.2583,-88.2131,4.354,22.78,1111122 
DISL,ioos:station:DISL:KATA:1,2014-01-01T09:30:00Z,30.2583,-88.2131,4.287,22.76,1111122 
DISL,ioos:station:DISL:KATA:1,2014-01-01T10:00:00Z,30.2583,-88.2131,4.222,22.74,1111122 
DISL,ioos:station:DISL:KATA:1,2014-01-01T10:30:00Z,30.2583,-88.2131,4.16,22.85,1111122 
DISL,ioos:station:DISL:KATA:1,2014-01-01T11:00:00Z,30.2583,-88.2131,4.123,22.62,1111122 
DISL,ioos:station:DISL:KATA:1,2014-01-01T11:30:00Z,30.2583,-88.2131,4.099,22.81,1111122 
DISL,ioos:station:DISL:KATA:1,2014-01-01T12:00:00Z,30.2583,-88.2131,4.092,22.87,1111122 
DISL,ioos:station:DISL:KATA:1,2014-01-01T12:30:00Z,30.2583,-88.2131,4.09,22.67,1111122 
DISL,ioos:station:DISL:KATA:1,2014-01-01T13:00:00Z,30.2583,-88.2131,4.125,23.04,1111122 
DISL,ioos:station:DISL:KATA:1,2014-01-01T13:30:00Z,30.2583,-88.2131,4.133,23.02,1111122 
DISL,ioos:station:DISL:KATA:1,2014-01-01T14:00:00Z,30.2583,-88.2131,4.151,22.71,1111122 
DISL,ioos:station:DISL:KATA:1,2014-01-01T14:30:00Z,30.2583,-88.2131,4.169,22.88,1111122 
DISL,ioos:station:DISL:KATA:1,2014-01-01T15:00:00Z,30.2583,-88.2131,4.188,22.99,1111122 
DISL,ioos:station:DISL:KATA:1,2014-01-01T15:30:00Z,30.2583,-88.2131,4.207,23.87,1111122 
DISL,ioos:station:DISL:KATA:1,2014-01-01T16:00:00Z,30.2583,-88.2131,4.241,23.3,1111122 
DISL,ioos:station:DISL:KATA:1,2014-01-01T16:30:00Z,30.2583,-88.2131,4.274,23.63,1111122 
DISL,ioos:station:DISL:KATA:1,2014-01-01T17:00:00Z,30.2583,-88.2131,4.312,23.45,1111122 
DISL,ioos:station:DISL:KATA:1,2014-01-01T17:30:00Z,30.2583,-88.2131,4.346,23.68,1111122 
DISL,ioos:station:DISL:KATA:1,2014-01-01T18:00:00Z,30.2583,-88.2131,4.385,23.6,1111122 
DISL,ioos:station:DISL:KATA:1,2014-01-01T18:30:00Z,30.2583,-88.2131,4.425,23.84,1111122 
DISL,ioos:station:DISL:KATA:1,2014-01-01T19:00:00Z,30.2583,-88.2131,4.454,24.59,1111122 
DISL,ioos:station:DISL:KATA:1,2014-01-01T19:30:00Z,30.2583,-88.2131,4.504,24.4,1111122 
DISL,ioos:station:DISL:KATA:1,2014-01-01T20:00:00Z,30.2583,-88.2131,4.524,24.71,1111122 
DISL,ioos:station:DISL:KATA:1,2014-01-01T20:30:00Z,30.2583,-88.2131,4.562,25.13,1111122 
DISL,ioos:station:DISL:KATA:1,2014-01-01T21:00:00Z,30.2583,-88.2131,4.592,24.67,1111122 
DISL,ioos:station:DISL:KATA:1,2014-01-01T21:30:00Z,30.2583,-88.2131,4.612,25.55,1111122 
DISL,ioos:station:DISL:KATA:1,2014-01-01T22:00:00Z,30.2583,-88.2131,4.638,25.88,1111122 
DISL,ioos:station:DISL:KATA:1,2014-01-01T22:30:00Z,30.2583,-88.2131,4.684,25.75,1111122 
DISL,ioos:station:DISL:KATA:1,2014-01-01T23:00:00Z,30.2583,-88.2131,4.72,26.03,1111122 
DISL,ioos:station:DISL:KATA:1,2014-01-01T23:30:00Z,30.2583,-88.2131,4.766,26.31,1111122 
DISL,ioos:station:DISL:KATA:1,2014-01-02T00:00:00Z,30.2583,-88.2131,4.811,26.08,1111122 
DISL,ioos:station:DISL:KATA:1,2014-01-02T00:30:00Z,30.2583,-88.2131,4.852,26.5,1111122 
DISL,ioos:station:DISL:KATA:1,2014-01-02T01:00:00Z,30.2583,-88.2131,4.896,26.64,1111122 
DISL,ioos:station:DISL:KATA:1,2014-01-02T01:30:00Z,30.2583,-88.2131,4.937,26.94,1111122 
DISL,ioos:station:DISL:KATA:1,2014-01-02T02:00:00Z,30.2583,-88.2131,4.965,26.02,1111122 
DISL,ioos:station:DISL:KATA:1,2014-01-02T02:30:00Z,30.2583,-88.2131,4.984,26.12,1111122 
DISL,ioos:station:DISL:KATA:1,2014-01-02T03:00:00Z,30.2583,-88.2131,4.987,26.17,1111122 
DISL,ioos:station:DISL:KATA:1,2014-01-02T03:30:00Z,30.2583,-88.2131,4.981,26.34,1111122 
DISL,ioos:station:DISL:KATA:1,2014-01-02T04:00:00Z,30.2583,-88.2131,4.958,26.33,1111122 
DISL,ioos:station:DISL:KATA:1,2014-01-02T04:30:00Z,30.2583,-88.2131,4.91,26.31,1111122 
DISL,ioos:station:DISL:KATA:1,2014-01-02T05:00:00Z,30.2583,-88.2131,4.873,26.59,1111122 
DISL,ioos:station:DISL:KATA:1,2014-01-02T05:30:00Z,30.2583,-88.2131,4.873,26.29,1111122 
DISL,ioos:station:DISL:KATA:1,2014-01-02T06:00:00Z,30.2583,-88.2131,4.874,26.28,1111122 
DISL,ioos:station:DISL:KATA:1,2014-01-02T06:30:00Z,30.2583,-88.2131,4.836,27.02,1111122 
DISL,ioos:station:DISL:KATA:1,2014-01-02T07:00:00Z,30.2583,-88.2131,4.808,25.95,1111122 
DISL,ioos:station:DISL:KATA:1,2014-01-02T07:30:00Z,30.2583,-88.2131,4.767,25.8,1111122 
DISL,ioos:station:DISL:KATA:1,2014-01-02T08:00:00Z,30.2583,-88.2131,4.724,25.94,1111122 
DISL,ioos:station:DISL:KATA:1,2014-01-02T08:30:00Z,30.2583,-88.2131,4.663,26.04,1111122 
DISL,ioos:station:DISL:KATA:1,2014-01-02T09:00:00Z,30.2583,-88.2131,4.597,25.99,1111122 
DISL,ioos:station:DISL:KATA:1,2014-01-02T09:30:00Z,30.2583,-88.2131,4.52,25.71,1111122 
DISL,ioos:station:DISL:KATA:1,2014-01-02T10:00:00Z,30.2583,-88.2131,4.44,25.99,1111122 
DISL,ioos:station:DISL:KATA:1,2014-01-02T10:30:00Z,30.2583,-88.2131,4.386,26.06,1111122 
DISL,ioos:station:DISL:KATA:1,2014-01-02T11:00:00Z,30.2583,-88.2131,4.332,25.9,1111122 
DISL,ioos:station:DISL:KATA:1,2014-01-02T11:30:00Z,30.2583,-88.2131,4.286,25.63,1111122 
DISL,ioos:station:DISL:KATA:1,2014-01-02T12:00:00Z,30.2583,-88.2131,4.257,26.32,1111122 
DISL,ioos:station:DISL:KATA:1,2014-01-02T12:30:00Z,30.2583,-88.2131,4.25,26.05,1111122 
DISL,ioos:station:DISL:KATA:1,2014-01-02T13:00:00Z,30.2583,-88.2131,4.262,25.76,1111122 
DISL,ioos:station:DISL:KATA:1,2014-01-02T13:30:00Z,30.2583,-88.2131,4.302,25.54,1111122 
DISL,ioos:station:DISL:KATA:1,2014-01-02T14:00:00Z,30.2583,-88.2131,4.338,24.74,1111122 
DISL,ioos:station:DISL:KATA:1,2014-01-02T14:30:00Z,30.2583,-88.2131,4.364,25.21,1111122 
DISL,ioos:station:DISL:KATA:1,2014-01-02T15:00:00Z,30.2583,-88.2131,4.36,25.66,1111122 
DISL,ioos:station:DISL:KATA:1,2014-01-02T15:30:00Z,30.2583,-88.2131,4.329,25.79,1111122 
DISL,ioos:station:DISL:KATA:1,2014-01-02T16:00:00Z,30.2583,-88.2131,4.325,25.83,1111122 
DISL,ioos:station:DISL:KATA:1,2014-01-02T16:30:00Z,30.2583,-88.2131,4.341,25.72,1111122 
DISL,ioos:station:DISL:KATA:1,2014-01-02T17:00:00Z,30.2583,-88.2131,4.337,25.78,1111122 
DISL,ioos:station:DISL:KATA:1,2014-01-02T17:30:00Z,30.2583,-88.2131,4.366,25.97,1111122 
DISL,ioos:station:DISL:KATA:1,2014-01-02T18:00:00Z,30.2583,-88.2131,4.398,25.87,1111122 
DISL,ioos:station:DISL:KATA:1,2014-01-02T18:30:00Z,30.2583,-88.2131,4.431,25.91,1111122 
DISL,ioos:station:DISL:KATA:1,2014-01-02T19:00:00Z,30.2583,-88.2131,4.456,26.27,1111122 
DISL,ioos:station:DISL:KATA:1,2014-01-02T19:30:00Z,30.2583,-88.2131,4.482,25.59,1111122 
DISL,ioos:station:DISL:KATA:1,2014-01-02T20:00:00Z,30.2583,-88.2131,4.503,25.2,1111122 
DISL,ioos:station:DISL:KATA:1,2014-01-02T20:30:00Z,30.2583,-88.2131,4.557,24.94,1111122 
DISL,ioos:station:DISL:KATA:1,2014-01-02T21:00:00Z,30.2583,-88.2131,4.571,24.85,1111122 
DISL,ioos:station:DISL:KATA:1,2014-01-02T21:30:00Z,30.2583,-88.2131,4.626,24.6,1111122 
DISL,ioos:station:DISL:KATA:1,2014-01-02T22:00:00Z,30.2583,-88.2131,4.565,24.27,1111122 
DISL,ioos:station:DISL:KATA:1,2014-01-02T22:30:00Z,30.2583,-88.2131,4.478,24.53,1111122 
DISL,ioos:station:DISL:KATA:1,2014-01-02T23:00:00Z,30.2583,-88.2131,4.427,24.51,1111122 
DISL,ioos:station:DISL:KATA:1,2014-01-02T23:30:00Z,30.2583,-88.2131,4.449,24.18,1111122 
DISL,ioos:station:DISL:KATA:1,2014-01-03T00:00:00Z,30.2583,-88.2131,4.506,24.14,1111122 
DISL,ioos:station:DISL:KATA:1,2014-01-03T00:30:00Z,30.2583,-88.2131,4.479,24.62,1111122 
DISL,ioos:station:DISL:KATA:1,2014-01-03T01:00:00Z,30.2583,-88.2131,4.48,24.39,1111122 
DISL,ioos:station:DISL:KATA:1,2014-01-03T01:30:00Z,30.2583,-88.2131,4.499,24.29,1111122 
DISL,ioos:station:DISL:KATA:1,2014-01-03T02:00:00Z,30.2583,-88.2131,4.51,24.29,1111122 
DISL,ioos:station:DISL:KATA:1,2014-01-03T02:30:00Z,30.2583,-88.2131,4.545,24.51,1111122 
DISL,ioos:station:DISL:KATA:1,2014-01-03T03:00:00Z,30.2583,-88.2131,4.602,25.22,1111122 
DISL,ioos:station:DISL:KATA:1,2014-01-03T03:30:00Z,30.2583,-88.2131,4.651,24.77,1111122 
DISL,ioos:station:DISL:KATA:1,2014-01-03T04:00:00Z,30.2583,-88.2131,4.625,24.74,1111122 
DISL,ioos:station:DISL:KATA:1,2014-01-03T04:30:00Z,30.2583,-88.2131,4.68,24.76,1111122 
DISL,ioos:station:DISL:KATA:1,2014-01-03T05:00:00Z,30.2583,-88.2131,4.727,24.75,1111122 
DISL,ioos:station:DISL:KATA:1,2014-01-03T05:30:00Z,30.2583,-88.2131,4.72,24.59,1111122 
DISL,ioos:station:DISL:KATA:1,2014-01-03T06:00:00Z,30.2583,-88.2131,4.701,24.39,1111122 
DISL,ioos:station:DISL:KATA:1,2014-01-03T06:30:00Z,30.2583,-88.2131,4.678,24.37,1111122 
DISL,ioos:station:DISL:KATA:1,2014-01-03T07:00:00Z,30.2583,-88.2131,4.645,24.34,1111122 
DISL,ioos:station:DISL:KATA:1,2014-01-03T07:30:00Z,30.2583,-88.2131,4.609,24.75,1111122 
DISL,ioos:station:DISL:KATA:1,2014-01-03T08:00:00Z,30.2583,-88.2131,4.542,24.52,1111122 
DISL,ioos:station:DISL:KATA:1,2014-01-03T08:30:00Z,30.2583,-88.2131,4.494,24.95,1111122 
DISL,ioos:station:DISL:KATA:1,2014-01-03T09:00:00Z,30.2583,-88.2131,4.445,24.75,1111122 
DISL,ioos:station:DISL:KATA:1,2014-01-03T09:30:00Z,30.2583,-88.2131,4.373,24.83,1111122 
DISL,ioos:station:DISL:KATA:1,2014-01-03T10:00:00Z,30.2583,-88.2131,4.307,24.84,1111122 
DISL,ioos:station:DISL:KATA:1,2014-01-03T10:30:00Z,30.2583,-88.2131,4.229,25.24,1111122 
DISL,ioos:station:DISL:KATA:1,2014-01-03T11:00:00Z,30.2583,-88.2131,4.162,24.53,1111122 
DISL,ioos:station:DISL:KATA:1,2014-01-03T11:30:00Z,30.2583,-88.2131,4.061,24.47,1111122 
DISL,ioos:station:DISL:KATA:1,2014-01-03T12:00:00Z,30.2583,-88.2131,4.011,25.34,1111122 
DISL,ioos:station:DISL:KATA:1,2014-01-03T12:30:00Z,30.2583,-88.2131,3.951,24.5,1111122 
DISL,ioos:station:DISL:KATA:1,2014-01-03T13:00:00Z,30.2583,-88.2131,3.927,25.14,1111122 
DISL,ioos:station:DISL:KATA:1,2014-01-03T13:30:00Z,30.2583,-88.2131,3.897,24.78,1111122 
DISL,ioos:station:DISL:KATA:1,2014-01-03T14:00:00Z,30.2583,-88.2131,3.876,25.35,1111122 
DISL,ioos:station:DISL:KATA:1,2014-01-03T14:30:00Z,30.2583,-88.2131,3.89,25.29,1111122 
DISL,ioos:station:DISL:KATA:1,2014-01-03T15:00:00Z,30.2583,-88.2131,3.909,25.16,1111122 
DISL,ioos:station:DISL:KATA:1,2014-01-03T15:30:00Z,30.2583,-88.2131,3.929,25.11,1111122 
DISL,ioos:station:DISL:KATA:1,2014-01-03T16:00:00Z,30.2583,-88.2131,3.958,25.19,1111122 
DISL,ioos:station:DISL:KATA:1,2014-01-03T16:30:00Z,30.2583,-88.2131,3.965,25.15,1111122 
DISL,ioos:station:DISL:KATA:1,2014-01-03T17:00:00Z,30.2583,-88.2131,3.985,25.15,1111122 
DISL,ioos:station:DISL:KATA:1,2014-01-03T17:30:00Z,30.2583,-88.2131,4.022,25.15,1111122 
DISL,ioos:station:DISL:KATA:1,2014-01-03T18:00:00Z,30.2583,-88.2131,4.096,17.88,1111122 
DISL,ioos:station:DISL:KATA:1,2014-01-03T18:30:00Z,30.2583,-88.2131,4.147,17.91,1111122 
DISL,ioos:station:DISL:KATA:1,2014-01-03T19:00:00Z,30.2583,-88.2131,4.201,17.94,1111122 
DISL,ioos:station:DISL:KATA:1,2014-01-03T19:30:00Z,30.2583,-88.2131,4.255,17.98,1111122 
DISL,ioos:station:DISL:KATA:1,2014-01-03T20:00:00Z,30.2583,-88.2131,4.272,18.02,1111122 
DISL,ioos:station:DISL:KATA:1,2014-01-03T20:30:00Z,30.2583,-88.2131,4.291,18.06,1111122 
DISL,ioos:station:DISL:KATA:1,2014-01-03T21:00:00Z,30.2583,-88.2131,4.318,18.09,1111122 
DISL,ioos:station:DISL:KATA:1,2014-01-03T21:30:00Z,30.2583,-88.2131,4.339,18.13,1111122 
DISL,ioos:station:DISL:KATA:1,2014-01-03T22:00:00Z,30.2583,-88.2131,4.354,18.16,1111122 
DISL,ioos:station:DISL:KATA:1,2014-01-03T22:30:00Z,30.2583,-88.2131,4.374,18.2,1111122 
DISL,ioos:station:DISL:KATA:1,2014-01-03T23:00:00Z,30.2583,-88.2131,4.387,18.25,1111122 
DISL,ioos:station:DISL:KATA:1,2014-01-03T23:30:00Z,30.2583,-88.2131,4.393,18.3,1111122 
DISL,ioos:station:DISL:KATA:1,2014-01-04T00:00:00Z,30.2583,-88.2131,4.403,18.33,1111122 
DISL,ioos:station:DISL:KATA:1,2014-01-04T00:30:00Z,30.2583,-88.2131,4.427,18.39,1111122 
DISL,ioos:station:DISL:KATA:1,2014-01-04T01:00:00Z,30.2583,-88.2131,4.459,18.43,1111122 
DISL,ioos:station:DISL:KATA:1,2014-01-04T01:30:00Z,30.2583,-88.2131,4.496,18.47,1111122 
DISL,ioos:station:DISL:KATA:1,2014-01-04T02:00:00Z,30.2583,-88.2131,4.536,18.52,1111122 
DISL,ioos:station:DISL:KATA:1,2014-01-04T02:30:00Z,30.2583,-88.2131,4.574,18.57,1111122 
DISL,ioos:station:DISL:KATA:1,2014-01-04T03:00:00Z,30.2583,-88.2131,4.613,18.6,1111122 
DISL,ioos:station:DISL:KATA:1,2014-01-04T03:30:00Z,30.2583,-88.2131,4.635,18.64,1111122 
DISL,ioos:station:DISL:KATA:1,2014-01-04T04:00:00Z,30.2583,-88.2131,4.657,18.67,1111122 
DISL,ioos:station:DISL:KATA:1,2014-01-04T04:30:00Z,30.2583,-88.2131,4.656,18.68,1111122 
DISL,ioos:station:DISL:KATA:1,2014-01-04T05:00:00Z,30.2583,-88.2131,4.658,18.7,1111122 
DISL,ioos:station:DISL:KATA:1,2014-01-04T05:30:00Z,30.2583,-88.2131,4.658,18.72,1111122 
DISL,ioos:station:DISL:KATA:1,2014-01-04T06:00:00Z,30.2583,-88.2131,4.651,18.74,1111122 
DISL,ioos:station:DISL:KATA:1,2014-01-04T06:30:00Z,30.2583,-88.2131,4.654,18.75,1111122 
DISL,ioos:station:DISL:KATA:1,2014-01-04T07:00:00Z,30.2583,-88.2131,4.655,18.79,1111122 
DISL,ioos:station:DISL:KATA:1,2014-01-04T07:30:00Z,30.2583,-88.2131,4.651,18.8,1111122 
DISL,ioos:station:DISL:KATA:1,2014-01-04T08:00:00Z,30.2583,-88.2131,4.641,18.81,1111122 
DISL,ioos:station:DISL:KATA:1,2014-01-04T08:30:00Z,30.2583,-88.2131,4.613,18.82,1111122 
DISL,ioos:station:DISL:KATA:1,2014-01-04T09:00:00Z,30.2583,-88.2131,4.571,18.82,1111122 
DISL,ioos:station:DISL:KATA:1,2014-01-04T09:30:00Z,30.2583,-88.2131,4.522,18.81,1111122 
DISL,ioos:station:DISL:KATA:1,2014-01-04T10:00:00Z,30.2583,-88.2131,4.464,18.83,1111122 
DISL,ioos:station:DISL:KATA:1,2014-01-04T10:30:00Z,30.2583,-88.2131,4.404,18.79,1111122 
DISL,ioos:station:DISL:KATA:1,2014-01-04T11:00:00Z,30.2583,-88.2131,4.34,18.79,1111122 
DISL,ioos:station:DISL:KATA:1,2014-01-04T11:30:00Z,30.2583,-88.2131,4.284,18.8,1111122 
DISL,ioos:station:DISL:KATA:1,2014-01-04T12:00:00Z,30.2583,-88.2131,4.224,18.78,1111122 
DISL,ioos:station:DISL:KATA:1,2014-01-04T12:30:00Z,30.2583,-88.2131,4.188,18.79,1111122 
DISL,ioos:station:DISL:KATA:1,2014-01-04T13:00:00Z,30.2583,-88.2131,4.155,18.79,1111122 
DISL,ioos:station:DISL:KATA:1,2014-01-04T13:30:00Z,30.2583,-88.2131,4.144,18.83,1111122 
DISL,ioos:station:DISL:KATA:1,2014-01-04T14:00:00Z,30.2583,-88.2131,4.148,18.86,1111122 
DISL,ioos:station:DISL:KATA:1,2014-01-04T14:30:00Z,30.2583,-88.2131,4.156,18.9,1111122 
DISL,ioos:station:DISL:KATA:1,2014-01-04T15:00:00Z,30.2583,-88.2131,4.173,18.98,1111122 
DISL,ioos:station:DISL:KATA:1,2014-01-04T15:30:00Z,30.2583,-88.2131,4.19,19.03,1111122 
DISL,ioos:station:DISL:KATA:1,2014-01-04T16:00:00Z,30.2583,-88.2131,4.208,19.08,1111122 
DISL,ioos:station:DISL:KATA:1,2014-01-04T16:30:00Z,30.2583,-88.2131,4.221,19.12,1111122 
DISL,ioos:station:DISL:KATA:1,2014-01-04T17:00:00Z,30.2583,-88.2131,4.238,19.15,1111122 
DISL,ioos:station:DISL:KATA:1,2014-01-04T17:30:00Z,30.2583,-88.2131,4.249,19.18,1111122 
DISL,ioos:station:DISL:KATA:1,2014-01-04T18:00:00Z,30.2583,-88.2131,4.26,19.21,1111122 
DISL,ioos:station:DISL:KATA:1,2014-01-04T18:30:00Z,30.2583,-88.2131,4.279,19.24,1111122 
DISL,ioos:station:DISL:KATA:1,2014-01-04T19:00:00Z,30.2583,-88.2131,4.297,19.29,1111122 
DISL,ioos:station:DISL:KATA:1,2014-01-04T19:30:00Z,30.2583,-88.2131,4.332,19.35,1111122 
DISL,ioos:station:DISL:KATA:1,2014-01-04T20:00:00Z,30.2583,-88.2131,4.372,19.41,1111122 
DISL,ioos:station:DISL:KATA:1,2014-01-04T20:30:00Z,30.2583,-88.2131,4.414,19.46,1111122 
DISL,ioos:station:DISL:KATA:1,2014-01-04T21:00:00Z,30.2583,-88.2131,4.452,19.52,1111122 
DISL,ioos:station:DISL:KATA:1,2014-01-04T21:30:00Z,30.2583,-88.2131,4.486,19.56,1111122 
DISL,ioos:station:DISL:KATA:1,2014-01-04T22:00:00Z,30.2583,-88.2131,4.507,19.6,1111122 
DISL,ioos:station:DISL:KATA:1,2014-01-04T22:30:00Z,30.2583,-88.2131,4.533,19.62,1111122 
DISL,ioos:station:DISL:KATA:1,2014-01-04T23:00:00Z,30.2583,-88.2131,4.539,19.66,1111122 
DISL,ioos:station:DISL:KATA:1,2014-01-04T23:30:00Z,30.2583,-88.2131,4.546,19.68,1111122 
DISL,ioos:station:DISL:KATA:1,2014-01-05T00:00:00Z,30.2583,-88.2131,4.567,19.69,1111122 
DISL,ioos:station:DISL:KATA:1,2014-01-05T00:30:00Z,30.2583,-88.2131,4.573,19.76,1111122 
DISL,ioos:station:DISL:KATA:1,2014-01-05T01:00:00Z,30.2583,-88.2131,4.581,19.84,1111122 
DISL,ioos:station:DISL:KATA:1,2014-01-05T01:30:00Z,30.2583,-88.2131,4.61,19.92,1111122 
DISL,ioos:station:DISL:KATA:1,2014-01-05T02:00:00Z,30.2583,-88.2131,4.646,20.04,1111122 
DISL,ioos:station:DISL:KATA:1,2014-01-05T02:30:00Z,30.2583,-88.2131,4.689,20.13,1111122 
DISL,ioos:station:DISL:KATA:1,2014-01-05T03:00:00Z,30.2583,-88.2131,4.746,20.21,1111122 
DISL,ioos:station:DISL:KATA:1,2014-01-05T03:30:00Z,30.2583,-88.2131,4.773,20.13,1111122 
DISL,ioos:station:DISL:KATA:1,2014-01-05T04:00:00Z,30.2583,-88.2131,4.8,20.07,1111122 
DISL,ioos:station:DISL:KATA:1,2014-01-05T04:30:00Z,30.2583,-88.2131,4.818,20.08,1111122 
DISL,ioos:station:DISL:KATA:1,2014-01-05T05:00:00Z,30.2583,-88.2131,4.832,20.28,1111122 
DISL,ioos:station:DISL:KATA:1,2014-01-05T05:30:00Z,30.2583,-88.2131,4.825,20.16,1111122 
DISL,ioos:station:DISL:KATA:1,2014-01-05T06:00:00Z,30.2583,-88.2131,4.818,20.17,1111122 
DISL,ioos:station:DISL:KATA:1,2014-01-05T06:30:00Z,30.2583,-88.2131,4.801,19.96,1111122 
DISL,ioos:station:DISL:KATA:1,2014-01-05T07:00:00Z,30.2583,-88.2131,4.771,20.34,1111122 
DISL,ioos:station:DISL:KATA:1,2014-01-05T07:30:00Z,30.2583,-88.2131,4.762,20.33,1111122 
DISL,ioos:station:DISL:KATA:1,2014-01-05T08:00:00Z,30.2583,-88.2131,4.769,20.67,1111122 
DISL,ioos:station:DISL:KATA:1,2014-01-05T08:30:00Z,30.2583,-88.2131,4.746,20.72,1111122 
DISL,ioos:station:DISL:KATA:1,2014-01-05T09:00:00Z,30.2583,-88.2131,4.727,20.76,1111122 
DISL,ioos:station:DISL:KATA:1,2014-01-05T09:30:00Z,30.2583,-88.2131,4.718,20.76,1111122 
DISL,ioos:station:DISL:KATA:1,2014-01-05T10:00:00Z,30.2583,-88.2131,4.68,20.75,1111122 
DISL,ioos:station:DISL:KATA:1,2014-01-05T10:30:00Z,30.2583,-88.2131,4.643,20.75,1111122 
DISL,ioos:station:DISL:KATA:1,2014-01-05T11:00:00Z,30.2583,-88.2131,4.61,20.76,1111122 
DISL,ioos:station:DISL:KATA:1,2014-01-05T11:30:00Z,30.2583,-88.2131,4.569,20.77,1111122 
DISL,ioos:station:DISL:KATA:1,2014-01-05T12:00:00Z,30.2583,-88.2131,4.528,20.79,1111122 
DISL,ioos:station:DISL:KATA:1,2014-01-05T12:30:00Z,30.2583,-88.2131,4.491,20.8,1111122 
DISL,ioos:station:DISL:KATA:1,2014-01-05T13:00:00Z,30.2583,-88.2131,4.467,20.84,1111122 
DISL,ioos:station:DISL:KATA:1,2014-01-05T13:30:00Z,30.2583,-88.2131,4.454,20.91,1111122 
DISL,ioos:station:DISL:KATA:1,2014-01-05T14:00:00Z,30.2583,-88.2131,4.456,20.93,1111122 
DISL,ioos:station:DISL:KATA:1,2014-01-05T14:30:00Z,30.2583,-88.2131,4.468,20.96,1111122 
DISL,ioos:station:DISL:KATA:1,2014-01-05T15:00:00Z,30.2583,-88.2131,4.484,20.98,1111122 
DISL,ioos:station:DISL:KATA:1,2014-01-05T15:30:00Z,30.2583,-88.2131,4.506,21.01,1111122 
DISL,ioos:station:DISL:KATA:1,2014-01-05T16:00:00Z,30.2583,-88.2131,4.518,21.04,1111122 
DISL,ioos:station:DISL:KATA:1,2014-01-05T16:30:00Z,30.2583,-88.2131,4.531,20.87,1111122 
DISL,ioos:station:DISL:KATA:1,2014-01-05T17:00:00Z,30.2583,-88.2131,4.548,21.08,1111122 
DISL,ioos:station:DISL:KATA:1,2014-01-05T17:30:00Z,30.2583,-88.2131,4.561,21.11,1111122 
DISL,ioos:station:DISL:KATA:1,2014-01-05T18:00:00Z,30.2583,-88.2131,4.589,21.12,1111122 
DISL,ioos:station:DISL:KATA:1,2014-01-05T18:30:00Z,30.2583,-88.2131,4.603,21.13,1111122 
DISL,ioos:station:DISL:KATA:1,2014-01-05T19:00:00Z,30.2583,-88.2131,4.627,21.15,1111122 
DISL,ioos:station:DISL:KATA:1,2014-01-05T19:30:00Z,30.2583,-88.2131,4.645,21.16,1111122 
DISL,ioos:station:DISL:KATA:1,2014-01-05T20:00:00Z,30.2583,-88.2131,4.665,21.17,1111122 
DISL,ioos:station:DISL:KATA:1,2014-01-05T20:30:00Z,30.2583,-88.2131,4.689,21.19,1111122 
DISL,ioos:station:DISL:KATA:1,2014-01-05T21:00:00Z,30.2583,-88.2131,4.718,21.22,1111122 
DISL,ioos:station:DISL:KATA:1,2014-01-05T21:30:00Z,30.2583,-88.2131,4.74,21.24,1111122 
DISL,ioos:station:DISL:KATA:1,2014-01-05T22:00:00Z,30.2583,-88.2131,4.748,21.25,1111122 
DISL,ioos:station:DISL:KATA:1,2014-01-05T22:30:00Z,30.2583,-88.2131,4.781,21.25,1111122 
DISL,ioos:station:DISL:KATA:1,2014-01-05T23:00:00Z,30.2583,-88.2131,4.802,21.28,1111122 
DISL,ioos:station:DISL:KATA:1,2014-01-05T23:30:00Z,30.2583,-88.2131,4.823,21.31,1111122 
DISL,ioos:station:DISL:KATA:1,2014-01-06T00:00:00Z,30.2583,-88.2131,4.821,21.34,1111122 
DISL,ioos:station:DISL:KATA:1,2014-01-06T00:30:00Z,30.2583,-88.2131,4.833,21.38,1111122 
DISL,ioos:station:DISL:KATA:1,2014-01-06T01:00:00Z,30.2583,-88.2131,4.851,21.42,1111122 
DISL,ioos:station:DISL:KATA:1,2014-01-06T01:30:00Z,30.2583,-88.2131,4.874,21.37,1111122 
DISL,ioos:station:DISL:KATA:1,2014-01-06T02:00:00Z,30.2583,-88.2131,4.898,21.56,1111122 
DISL,ioos:station:DISL:KATA:1,2014-01-06T02:30:00Z,30.2583,-88.2131,4.93,21.59,1111122 
DISL,ioos:station:DISL:KATA:1,2014-01-06T03:00:00Z,30.2583,-88.2131,4.975,21.62,1111122 
DISL,ioos:station:DISL:KATA:1,2014-01-06T03:30:00Z,30.2583,-88.2131,5.023,21.66,1111122 
DISL,ioos:station:DISL:KATA:1,2014-01-06T04:00:00Z,30.2583,-88.2131,5.047,21.69,1111122 
DISL,ioos:station:DISL:KATA:1,2014-01-06T04:30:00Z,30.2583,-88.2131,5.022,21.7,1111122 
DISL,ioos:station:DISL:KATA:1,2014-01-06T05:00:00Z,30.2583,-88.2131,4.972,21.7,1111122 
DISL,ioos:station:DISL:KATA:1,2014-01-06T05:30:00Z,30.2583,-88.2131,4.991,21.62,1111122 
DISL,ioos:station:DISL:KATA:1,2014-01-06T06:00:00Z,30.2583,-88.2131,4.824,21.62,1111122 
DISL,ioos:station:DISL:KATA:1,2014-01-06T06:30:00Z,30.2583,-88.2131,4.746,21.6,1111122 
DISL,ioos:station:DISL:KATA:1,2014-01-06T07:00:00Z,30.2583,-88.2131,4.767,21.57,1111122 
DISL,ioos:station:DISL:KATA:1,2014-01-06T07:30:00Z,30.2583,-88.2131,4.749,21.56,1111122 
DISL,ioos:station:DISL:KATA:1,2014-01-06T08:00:00Z,30.2583,-88.2131,4.598,21.43,1111122 
DISL,ioos:station:DISL:KATA:1,2014-01-06T08:30:00Z,30.2583,-88.2131,4.451,21.43,1111122 
DISL,ioos:station:DISL:KATA:1,2014-01-06T09:00:00Z,30.2583,-88.2131,4.338,21.23,1111122 
DISL,ioos:station:DISL:KATA:1,2014-01-06T09:30:00Z,30.2583,-88.2131,4.479,19.73,1111122 
DISL,ioos:station:DISL:KATA:1,2014-01-06T10:00:00Z,30.2583,-88.2131,4.654,19.23,1111122 
DISL,ioos:station:DISL:KATA:1,2014-01-06T10:30:00Z,30.2583,-88.2131,4.403,19.02,1111122 
DISL,ioos:station:DISL:KATA:1,2014-01-06T11:00:00Z,30.2583,-88.2131,4.267,19.2,1111122 
DISL,ioos:station:DISL:KATA:1,2014-01-06T11:30:00Z,30.2583,-88.2131,4.466,18.94,1111122 
DISL,ioos:station:DISL:KATA:1,2014-01-06T12:00:00Z,30.2583,-88.2131,4.377,18.21,1111122 
DISL,ioos:station:DISL:KATA:1,2014-01-06T12:30:00Z,30.2583,-88.2131,4.348,17.5,1111122 
DISL,ioos:station:DISL:KATA:1,2014-01-06T13:00:00Z,30.2583,-88.2131,4.248,17.26,1111122 
DISL,ioos:station:DISL:KATA:1,2014-01-06T13:30:00Z,30.2583,-88.2131,4.206,17.31,1111122 
DISL,ioos:station:DISL:KATA:1,2014-01-06T14:00:00Z,30.2583,-88.2131,4.301,17.3,1111122 